• Em Portugal
  • Lista de países
  • Para 7 dias
  • Temperatura da água
  • Mapas de satélite
  • Mapa do tempo
  • Widgets de tempo
  • user-avatar
    Iniciar Sessão

    Previsão horária em Hutor

    Hoje, 22 Setembro, Sábado

    Tempo Temperatura Precipitação Vento Pressão Humidade
    00:00 +17°C° 0 mm 2 m/s 743 mmHg 70%
    01:00 +17°C° 0 mm 2 m/s 743 mmHg 71%
    02:00 +16°C° 0 mm 1 m/s 743 mmHg 69%
    03:00 +16°C° 0 mm 2 m/s 743 mmHg 70%
    04:00 +16°C° 0 mm 2 m/s 743 mmHg 71%
    05:00 +16°C° 0 mm 2 m/s 743 mmHg 72%
    06:00 +17°C° 0 mm 2 m/s 743 mmHg 70%
    07:00 +18°C° 0 mm 3 m/s 743 mmHg 68%
    08:00 +19°C° 0 mm 3 m/s 743 mmHg 64%
    09:00 +21°C° 0 mm 4 m/s 743 mmHg 60%
    10:00 +22°C° 0 mm 4 m/s 742 mmHg 56%
    11:00 +25°C° 0 mm 5 m/s 742 mmHg 52%
    12:00 +26°C° 0 mm 5 m/s 742 mmHg 49%
    13:00 +26°C° 0 mm 5 m/s 742 mmHg 47%
    14:00 +27°C° 0 mm 5 m/s 741 mmHg 44%
    15:00 +26°C° 0 mm 5 m/s 741 mmHg 49%
    16:00 +25°C° 0 mm 4 m/s 740 mmHg 53%
    17:00 +22°C° 0 mm 4 m/s 740 mmHg 58%
    18:00 +22°C° 0 mm 4 m/s 739 mmHg 56%
    19:00 +21°C° 0 mm 5 m/s 739 mmHg 54%
    20:00 +20°C° 0 mm 5 m/s 738 mmHg 52%
    21:00 +20°C° 0 mm 6 m/s 738 mmHg 51%
    22:00 +20°C° 0 mm 6 m/s 737 mmHg 50%
    23:00 +20°C° 0 mm 6 m/s 737 mmHg 49%

    Amanhã, 23 Setembro, Domingo

    Tempo Temperatura Precipitação Vento Pressão Humidade
    00:00 +19°C° 0 mm 6 m/s 737 mmHg 50%
    01:00 +19°C° 0 mm 6 m/s 736 mmHg 50%
    02:00 +19°C° 0 mm 6 m/s 736 mmHg 51%
    03:00 +17°C° 0 mm 6 m/s 736 mmHg 55%
    04:00 +16°C° 0 mm 5 m/s 736 mmHg 59%
    05:00 +16°C° 0 mm 5 m/s 736 mmHg 64%
    06:00 +14°C° 0.7 mm 6 m/s 736 mmHg 71%
    07:00 +11°C° 0.7 mm 6 m/s 736 mmHg 78%
    08:00 +10°C° 0.7 mm 6 m/s 736 mmHg 85%
    09:00 +10°C° 0.5 mm 6 m/s 737 mmHg 84%
    10:00 +9°C° 0.5 mm 5 m/s 737 mmHg 82%
    11:00 +9°C° 0.5 mm 5 m/s 738 mmHg 81%
    12:00 +10°C° 0 mm 5 m/s 738 mmHg 78%
    13:00 +11°C° 0 mm 4 m/s 738 mmHg 76%
    14:00 +12°C° 0 mm 4 m/s 738 mmHg 73%
    15:00 +12°C° 0 mm 4 m/s 738 mmHg 73%
    16:00 +12°C° 0 mm 3 m/s 738 mmHg 73%
    17:00 +12°C° 0 mm 3 m/s 738 mmHg 73%
    18:00 +11°C° 0 mm 3 m/s 738 mmHg 76%
    19:00 +11°C° 0 mm 3 m/s 738 mmHg 79%
    20:00 +10°C° 0 mm 3 m/s 739 mmHg 82%
    21:00 +9°C° 0 mm 3 m/s 739 mmHg 84%
    22:00 +9°C° 0 mm 3 m/s 739 mmHg 86%
    23:00 +9°C° 0 mm 3 m/s 739 mmHg 88%

    Depois de amanhã, 24 Setembro, Segunda-feira

    Tempo Temperatura Precipitação Vento Pressão Humidade
    00:00 +8°C° 0 mm 3 m/s 739 mmHg 88%
    01:00 +8°C° 0 mm 3 m/s 739 mmHg 89%
    02:00 +8°C° 0 mm 3 m/s 739 mmHg 89%
    03:00 +8°C° 0 mm 3 m/s 739 mmHg 88%
    04:00 +8°C° 0 mm 3 m/s 739 mmHg 87%
    05:00 +8°C° 0 mm 3 m/s 738 mmHg 85%
    06:00 +9°C° 0 mm 3 m/s 738 mmHg 81%
    07:00 +10°C° 0 mm 4 m/s 738 mmHg 76%
    08:00 +11°C° 0 mm 4 m/s 738 mmHg 72%
    09:00 +10°C° 0.3 mm 5 m/s 737 mmHg 71%
    10:00 +11°C° 0.3 mm 6 m/s 736 mmHg 70%
    11:00 +11°C° 0.3 mm 7 m/s 736 mmHg 70%
    12:00 +10°C° 2 mm 7 m/s 735 mmHg 75%
    13:00 +10°C° 2 mm 8 m/s 734 mmHg 81%
    14:00 +9°C° 2 mm 8 m/s 733 mmHg 86%
    15:00 +8°C° 1.9 mm 9 m/s 731 mmHg 86%
    16:00 +10°C° 1.9 mm 9 m/s 730 mmHg 87%
    17:00 +9°C° 1.9 mm 10 m/s 728 mmHg 87%
    18:00 +11°C° 0.9 mm 10 m/s 728 mmHg 87%
    19:00 +11°C° 0.9 mm 10 m/s 727 mmHg 87%
    20:00 +12°C° 0.9 mm 10 m/s 726 mmHg 87%
    21:00 +11°C° 0.1 mm 10 m/s 726 mmHg 85%
    22:00 +8°C° 0.1 mm 9 m/s 727 mmHg 84%
    23:00 +7°C° 0.1 mm 9 m/s 727 mmHg 82%

    25 Setembro, Terça-feira

    Tempo Temperatura Precipitação Vento Pressão Humidade
    00:00 +7°C° 0 mm 9 m/s 727 mmHg 82%
    01:00 +7°C° 0 mm 8 m/s 728 mmHg 82%
    02:00 +6°C° 0 mm 8 m/s 729 mmHg 82%
    03:00 +6°C° 0 mm 8 m/s 729 mmHg 83%
    04:00 +6°C° 0 mm 8 m/s 729 mmHg 83%
    05:00 +6°C° 0 mm 8 m/s 730 mmHg 83%
    06:00 +6°C° 0 mm 8 m/s 730 mmHg 82%
    07:00 +6°C° 0 mm 8 m/s 731 mmHg 80%
    08:00 +6°C° 0 mm 8 m/s 731 mmHg 79%
    09:00 +6°C° 0 mm 8 m/s 732 mmHg 77%
    10:00 +6°C° 0 mm 8 m/s 733 mmHg 76%
    11:00 +6°C° 0 mm 8 m/s 734 mmHg 75%
    12:00 +6°C° 0 mm 8 m/s 734 mmHg 75%
    13:00 +6°C° 0 mm 7 m/s 735 mmHg 74%
    14:00 +6°C° 0 mm 7 m/s 735 mmHg 74%
    15:00 +5°C° 0 mm 7 m/s 736 mmHg 74%
    16:00 +5°C° 0 mm 7 m/s 736 mmHg 74%
    17:00 +5°C° 0 mm 6 m/s 737 mmHg 74%
    18:00 +5°C° 0 mm 6 m/s 738 mmHg 74%
    19:00 +5°C° 0 mm 6 m/s 738 mmHg 74%
    20:00 +6°C° 0 mm 5 m/s 739 mmHg 75%
    21:00 +5°C° 0 mm 5 m/s 739 mmHg 76%
    22:00 +5°C° 0 mm 5 m/s 739 mmHg 77%
    23:00 +3°C° 0 mm 5 m/s 740 mmHg 79%

    26 Setembro, Quarta-feira

    Tempo Temperatura Precipitação Vento Pressão Humidade
    00:00 +3°C° 0 mm 5 m/s 740 mmHg 79%
    01:00 +3°C° 0 mm 5 m/s 741 mmHg 79%
    02:00 +3°C° 0 mm 5 m/s 742 mmHg 79%
    03:00 +2°C° 0 mm 5 m/s 742 mmHg 79%
    04:00 +2°C° 0 mm 5 m/s 743 mmHg 79%
    05:00 +1°C° 0 mm 5 m/s 744 mmHg 79%
    06:00 +2°C° 0 mm 5 m/s 744 mmHg 75%
    07:00 +2°C° 0 mm 5 m/s 745 mmHg 71%
    08:00 +3°C° 0 mm 6 m/s 745 mmHg 68%
    09:00 +4°C° 0 mm 6 m/s 746 mmHg 62%
    10:00 +5°C° 0 mm 6 m/s 746 mmHg 57%
    11:00 +8°C° 0 mm 6 m/s 746 mmHg 51%
    12:00 +8°C° 0 mm 6 m/s 746 mmHg 51%
    13:00 +9°C° 0 mm 6 m/s 746 mmHg 50%
    14:00 +9°C° 0 mm 6 m/s 746 mmHg 50%
    15:00 +9°C° 0 mm 5 m/s 746 mmHg 54%
    16:00 +8°C° 0 mm 5 m/s 745 mmHg 58%
    17:00 +7°C° 0 mm 4 m/s 745 mmHg 62%
    18:00 +7°C° 0 mm 5 m/s 745 mmHg 63%
    19:00 +7°C° 0 mm 5 m/s 745 mmHg 65%
    20:00 +5°C° 0 mm 6 m/s 745 mmHg 66%
    21:00 +5°C° 0 mm 6 m/s 745 mmHg 68%
    22:00 +5°C° 0 mm 6 m/s 744 mmHg 69%
    23:00 +6°C° 0 mm 7 m/s 744 mmHg 71%

    27 Setembro, Quinta-feira

    Tempo Temperatura Precipitação Vento Pressão Humidade
    00:00 +5°C° 0.2 mm 7 m/s 743 mmHg 73%
    01:00 +5°C° 0.2 mm 8 m/s 742 mmHg 75%
    02:00 +5°C° 0.2 mm 8 m/s 742 mmHg 77%
    03:00 +5°C° 0.3 mm 8 m/s 741 mmHg 77%
    04:00 +5°C° 0.3 mm 9 m/s 740 mmHg 77%
    05:00 +5°C° 0.3 mm 9 m/s 740 mmHg 77%
    06:00 +5°C° 0.1 mm 9 m/s 739 mmHg 77%
    07:00 +5°C° 0.1 mm 10 m/s 739 mmHg 77%
    08:00 +5°C° 0.1 mm 10 m/s 739 mmHg 77%
    09:00 +6°C° 0 mm 10 m/s 738 mmHg 76%
    10:00 +6°C° 0 mm 10 m/s 738 mmHg 76%
    11:00 +7°C° 0 mm 9 m/s 738 mmHg 75%
    12:00 +7°C° 0.3 mm 9 m/s 738 mmHg 78%
    13:00 +7°C° 0.3 mm 9 m/s 737 mmHg 80%
    14:00 +6°C° 0.3 mm 9 m/s 737 mmHg 83%
    15:00 +7°C° 0.4 mm 9 m/s 736 mmHg 83%
    16:00 +7°C° 0.4 mm 8 m/s 736 mmHg 83%
    17:00 +7°C° 0.4 mm 8 m/s 736 mmHg 83%
    18:00 +7°C° 0.2 mm 8 m/s 735 mmHg 84%
    19:00 +9°C° 0.2 mm 8 m/s 735 mmHg 84%
    20:00 +9°C° 0.2 mm 8 m/s 735 mmHg 85%
    21:00 +9°C° 0.1 mm 8 m/s 734 mmHg 85%
    22:00 +10°C° 0.1 mm 9 m/s 734 mmHg 85%
    23:00 +10°C° 0.1 mm 9 m/s 734 mmHg 85%
    Mostrar mais